Vertical_Velocity
-0 -0 -0 -1 -1 -2 -2 -2 -1 -1 -1 -0 -1 -1 0 1 1 -3 -6 22 -3 -1 2 0 1 6 1 -2 4 7 -0 -7 -9 -2 -3 4 -6 -1 3 11 -5 -6 -1 7 1
-1 -1 -1 -1 -1 -0 0 0 0 -0 -0 0 -0 0 -1 -1 -1 7 -0 4 3 -3 0 4 1 5 -2 2 -1 -1 -8 -11 -2 3 0 1 0 0 -1 1 0 -2 -0 1 -2
-1 -1 -2 -1 -1 -1 -2 -1 -1 -2 -1 -2 -1 -0 -0 1 1 -7 1 4 3 -2 -0 7 1 -2 2 9 -5 -6 -26 2 2 4 1 -1 -4 0 4 1 -4 -4 -2 -2 0
-2 -2 -1 -1 -1 -2 -1 -1 -0 0 0 -1 0 -1 0 1 -2 1 2 3 7 3 -1 6 1 -4 -4 -6 -2 -1 -9 3 14 0 1 1 3 0 8 -1 7 -1 9 3 0
-2 -3 -3 -3 -1 -0 0 -1 -1 -0 -0 -0 2 3 2 -3 14 -2 1 6 3 3 6 9 3 4 -3 -5 7 1 -9 0 9 2 6 1 0 5 3 -1 8 0 1 2 2
-2 -2 -0 -0 -0 1 1 -0 1 1 2 2 2 2 -1 -3 5 10 1 6 8 1 3 -1 2 15 10 3 2 2 -6 2 6 5 4 3 -1 4 6 1 4 2 1 2 2
-1 -2 -1 -0 0 3 2 0 2 1 1 2 1 0 1 3 3 -1 6 7 7 6 3 5 11 4 10 8 10 12 -3 10 -3 3 -7 7 1 -10 9 4 1 1 -1 3 2
-0 -4 -4 -3 -3 -1 -1 -1 -1 1 2 3 3 5 0 9 -2 10 -0 5 4 5 7 11 5 9 2 11 3 -1 3 3 5 8 -4 5 -7 -4 -2 0 6 2 0 4 3
-4 -4 -2 -3 -2 -3 1 -1 -3 -2 -1 -1 -1 -1 0 6 6 4 2 3 7 6 3 14 12 7 11 7 6 9 -3 -9 -1 6 5 1 -7 -3 8 1 -1 4 3 3 1
-2 -4 -3 -4 -4 -5 -1 -4 -1 -1 5 -2 10 12 12 -2 2 -3 1 1 -2 8 6 1 9 3 5 2 -39 -5 0 -1 -9 -3 8 7 -1 -5 6 2 2 1 3 -2 -3
-2 -5 -6 -6 -4 -5 -8 12 5 -3 -5 -3 -3 -8 1 8 -0 0 -4 6 5 1 -2 8 8 -21 -18 15 28 13 -1 -4 0 2 7 -9 -0 -7 6 6 -1 1 1 -4 1
-4 -4 -4 -4 -6 -6 -4 -13 -7 -3 -4 -4 1 1 6 9 1 0 -3 -9 -2 1 7 6 -25 -15 22 22 10 -2 8 6 5 3 9 10 10 9 -2 5 8 13 -3 3 -1
-4 -2 -3 -3 -3 -0 -9 -8 -6 -2 -5 -8 -8 -11 -22 -10 -3 -9 -6 2 -1 -1 -1 16 -24 36 5 9 3 1 -4 3 2 -1 14 6 11 1 -1 5 6 8 10 6 4
-4 -4 -3 -6 1 -7 -5 -4 -1 -1 -3 -4 -19 -3 -7 -10 5 -3 -1 -5 5 -4 -1 -15 15 -2 8 2 26 11 -3 6 3 10 -9 14 -4 1 0 -1 4 4 4 5 4
-4 -3 -5 -14 -6 -1 -7 -4 -3 1 -10 -2 -14 12 3 -9 11 -6 -8 -1 -3 0 2 -9 8 4 5 -17 13 -6 2 -4 -0 12 10 6 12 3 8 4 1 3 3 4 2
-3 -3 -3 13 3 -7 -3 -1 -1 -5 -13 -7 8 -4 -15 -8 -5 2 -8 -5 4 -2 3 1 6 -2 19 6 7 -7 15 11 1 13 10 -3 -1 -3 6 -1 2 4 3 3 4
-4 -5 -9 -6 -17 -5 -5 -2 -6 -14 2 -12 -9 -1 7 -4 -4 -11 -9 -17 -12 -14 -12 -1 2 9 -2 -3 -5 8 6 9 25 25 -11 -7 21 3 3 2 10 3 4 5 2
-2 -4 -9 -8 -7 -6 -7 3 -21 -3 1 7 3 5 -6 -7 -5 -1 -4 -7 2 -2 1 1 -12 -2 2 2 -3 -2 21 -3 -5 -1 -13 17 5 -1 4 5 3 5 4 2 3
-2 -5 2 -10 -15 -5 15 -29 -4 1 3 -2 -1 -10 -8 -5 3 -1 1 -1 2 2 0 -0 -1 -1 6 1 3 2 0 6 6 2 11 4 7 8 8 5 5 2 2 4 4
-1 -4 -3 -10 -14 4 -17 -18 -1 -1 1 2 -5 1 -2 -4 -4 -6 -6 -0 -6 4 7 5 -1 1 1 1 -0 3 6 2 11 2 3 4 2 2 3 2 2 2 2 3 3
-3 -0 -6 -1 -4 -4 -25 -7 -1 -0 -1 -3 -3 -2 4 -1 5 3 -2 3 1 -9 6 3 7 2 3 -8 -0 -3 -1 7 -5 4 -2 -2 4 11 4 3 4 -0 1 -0 -0
-3 -7 -9 -5 -1 -13 -3 -2 -1 0 1 1 5 2 1 1 0 2 -1 3 3 4 -3 2 7 -1 1 -2 1 3 1 2 1 -3 -1 2 7 13 2 3 2 4 3 0 1
-3 -6 -2 -2 -12 -5 -3 -1 -1 1 -5 -3 -3 2 5 1 -1 -1 1 3 -0 -2 -4 -3 1 1 -2 3 7 -9 -2 -0 0 1 1 -4 8 8 5 4 2 2 3 2 1
-4 -7 -4 -7 -6 -4 -2 -2 -2 -1 0 -1 -0 2 -2 -1 3 -3 -1 1 -1 -0 1 1 4 -3 -5 -3 8 1 7 -0 4 -1 -0 6 5 4 5 3 1 1 3 1 1
1 -4 -2 -1 -5 -4 -0 -1 -1 -2 0 -0 6 2 0 -3 -1 -0 -1 4 1 -2 -1 -6 -6 1 -1 8 -3 -5 -3 1 -2 3 -3 10 -1 3 2 2 1 3 3 2 -0
-3 -6 -4 -4 -3 0 -1 -1 -2 2 -1 1 0 1 1 2 3 -3 1 -3 -2 -4 -1 -1 0 -0 2 2 -1 -13 -1 4 -2 3 1 6 -5 6 -4 1 -4 -0 3 3 3
-1 -1 -3 -3 -2 -3 -4 -4 0 -1 -0 1 0 -1 2 1 4 0 -1 -1 -2 -1 1 1 -1 -1 2 1 6 -6 -0 -1 2 -1 3 -4 3 4 4 -0 -1 2 1 1 2
Height
3106 3103 3101 3098 3096 3093 3090 3088 3086 3084 3081 3079 3078 3076 3075 3075 3076 3077 3078 3081 3079 3078 3079 3080 3081 3082 3082 3084 3086 3087 3088 3086 3089 3093 3096 3101 3103 3106 3111 3114 3112 3116 3119 3124 3127
3103 3100 3097 3094 3091 3088 3085 3082 3080 3077 3075 3073 3071 3069 3068 3068 3068 3070 3070 3069 3071 3070 3073 3075 3078 3076 3076 3078 3078 3079 3080 3081 3088 3090 3094 3096 3099 3103 3106 3107 3109 3112 3117 3119 3123
3100 3096 3093 3089 3086 3082 3079 3076 3073 3071 3068 3066 3064 3062 3061 3060 3061 3060 3059 3060 3063 3063 3067 3068 3070 3070 3071 3072 3070 3072 3072 3081 3083 3087 3090 3092 3095 3099 3102 3102 3105 3109 3112 3117 3119
3096 3091 3087 3083 3079 3075 3071 3067 3064 3060 3058 3056 3054 3052 3050 3051 3055 3051 3050 3051 3051 3051 3056 3059 3059 3059 3062 3061 3066 3065 3070 3074 3081 3083 3086 3089 3091 3094 3097 3100 3103 3108 3112 3115 3118
3090 3085 3080 3076 3071 3066 3062 3056 3052 3048 3046 3044 3042 3039 3037 3036 3045 3040 3043 3043 3043 3044 3046 3048 3049 3051 3053 3057 3062 3056 3063 3069 3075 3078 3081 3083 3086 3091 3093 3096 3100 3104 3108 3112 3117
3084 3078 3073 3067 3061 3056 3052 3044 3039 3036 3033 3030 3028 3028 3025 3020 3033 3030 3029 3030 3032 3035 3038 3038 3040 3046 3048 3049 3050 3051 3061 3064 3067 3071 3074 3077 3081 3085 3088 3091 3095 3099 3105 3108 3113
3077 3070 3063 3056 3049 3044 3039 3032 3026 3022 3019 3016 3014 3014 3010 3011 3020 3012 3012 3015 3018 3022 3027 3031 3035 3037 3040 3042 3045 3049 3054 3056 3056 3062 3066 3072 3073 3073 3084 3088 3090 3095 3101 3105 3109
3069 3060 3052 3044 3038 3034 3028 3021 3015 3010 3005 3003 3000 3000 2996 3003 3000 3000 3000 3004 3006 3008 3013 3020 3024 3028 3028 3035 3039 3040 3046 3043 3041 3051 3057 3063 3060 3070 3078 3083 3087 3090 3096 3101 3105
3061 3053 3046 3037 3030 3022 3017 3010 3003 2998 2995 2992 2991 2991 2992 2990 2989 2988 2988 2989 2995 2999 3003 3011 3013 3012 3022 3026 3031 3028 3020 3025 3034 3041 3049 3052 3052 3063 3072 3076 3082 3086 3091 3097 3100
3056 3047 3039 3030 3023 3014 3009 3002 2996 2991 2992 2989 2988 2990 2988 2986 2984 2983 2983 2984 2986 2991 2995 3000 3003 3004 3008 3011 2995 3007 3015 3020 3025 3033 3038 3043 3046 3057 3065 3070 3076 3082 3087 3090 3093
3050 3042 3033 3024 3018 3010 3004 3001 2997 2990 2987 2989 2991 2990 2988 2985 2982 2978 2978 2980 2980 2984 2986 2990 2993 2985 2978 2985 3002 3005 3012 3015 3019 3028 3033 3033 3043 3052 3060 3065 3071 3075 3079 3081 3086
3046 3038 3029 3022 3014 3007 3002 2995 2991 2993 2991 2992 2992 2991 2988 2984 2980 2976 2976 2976 2975 2976 2978 2982 2977 2976 2991 2996 2999 3003 3007 3010 3019 3024 3030 3033 3037 3047 3053 3057 3063 3067 3071 3074 3078
3042 3034 3029 3022 3015 3009 3002 2997 2993 2991 2992 2992 2992 2988 2985 2983 2978 2974 2972 2971 2969 2969 2971 2970 2971 2980 2984 2989 2993 2993 2998 3007 3014 3021 3026 3030 3035 3040 3043 3048 3054 3059 3063 3067 3071
3040 3033 3026 3022 3017 3009 3002 2998 2994 2991 2993 2995 2990 2989 2986 2982 2978 2974 2970 2970 2967 2965 2964 2965 2967 2966 2973 2976 2982 2982 2995 3004 3010 3016 3012 3019 3025 3030 3034 3038 3044 3050 3054 3060 3064
3039 3033 3027 3016 3013 3009 3004 2997 2995 2994 3000 3001 2995 2993 2989 2984 2982 2975 2970 2965 2963 2961 2962 2959 2958 2959 2962 2967 2974 2974 2987 2996 3005 3008 3011 3013 3020 3021 3027 3031 3036 3040 3046 3051 3057
3037 3033 3028 3024 3015 3009 3003 2998 2997 2998 3005 3003 2999 2993 2988 2984 2981 2976 2970 2964 2959 2956 2955 2954 2953 2953 2955 2962 2963 2971 2977 2988 2997 3002 3000 3000 3007 3013 3017 3019 3024 3029 3036 3042 3048
3037 3032 3027 3021 3014 3007 3003 2999 2999 3005 3011 3005 2998 2994 2990 2986 2982 2977 2971 2965 2963 2957 2954 2951 2950 2950 2950 2953 2958 2964 2968 2968 2975 2983 2981 2992 3000 3002 3005 3011 3017 3022 3027 3033 3039
3037 3033 3028 3021 3015 3009 3004 3002 3001 3013 3009 3005 3000 2997 2991 2987 2983 2979 2972 2968 2967 2963 2957 2954 2951 2948 2949 2949 2951 2953 2956 2950 2951 2957 2969 2982 2988 2994 2999 3002 3009 3014 3020 3027 3034
3037 3035 3031 3023 3014 3011 3008 2998 3013 3012 3011 3005 3001 2996 2993 2988 2986 2980 2976 2972 2969 2965 2963 2957 2953 2950 2948 2946 2949 2946 2947 2950 2951 2954 2961 2976 2987 2991 2995 2998 3001 3006 3012 3018 3025
3039 3036 3031 3022 3016 3015 3005 3007 3013 3012 3010 3006 3001 2999 2995 2990 2986 2981 2977 2974 2969 2967 2963 2960 2955 2950 2948 2945 2945 2944 2944 2946 2945 2942 2949 2973 2980 2983 2989 2992 2995 2999 3004 3010 3017
3040 3037 3030 3024 3020 3015 3008 3012 3014 3013 3010 3007 3004 3000 2997 2992 2988 2984 2980 2976 2970 2965 2963 2959 2956 2954 2948 2948 2947 2945 2943 2942 2942 2938 2932 2968 2982 2983 2985 2988 2991 2994 2998 3005 3011
3042 3037 3030 3026 3025 3015 3015 3015 3015 3013 3011 3008 3005 3001 2996 2991 2987 2984 2981 2977 2973 2968 2962 2959 2956 2953 2953 2951 2950 2947 2945 2944 2942 2942 2943 2951 2979 2981 2983 2987 2986 2989 2995 2999 3004
3042 3037 3034 3030 3023 3020 3019 3018 3016 3013 3010 3007 3004 3001 2996 2992 2989 2984 2981 2977 2973 2968 2963 2960 2956 2955 2952 2954 2954 2948 2944 2940 2944 2945 2952 2955 2978 2977 2979 2981 2985 2988 2991 2995 2999
3043 3038 3035 3030 3026 3024 3022 3019 3016 3013 3010 3006 3004 3000 2996 2992 2988 2985 2980 2977 2973 2970 2967 2965 2960 2958 2962 2967 2961 2953 2949 2943 2942 2941 2952 2961 2967 2975 2977 2977 2981 2986 2989 2992 2995
3045 3041 3037 3033 3027 3025 3023 3020 3017 3014 3011 3007 3005 2999 2994 2991 2987 2984 2980 2977 2975 2971 2970 2969 2968 2966 2967 2968 2964 2961 2955 2949 2946 2951 2955 2968 2969 2972 2974 2975 2979 2982 2984 2986 2990
3047 3044 3038 3034 3031 3028 3025 3021 3017 3013 3010 3006 3002 2998 2994 2991 2988 2984 2981 2979 2976 2974 2972 2971 2972 2972 2972 2970 2969 2968 2968 2964 2958 2957 2960 2966 2970 2973 2974 2974 2978 2980 2981 2982 2984
3049 3044 3041 3036 3032 3028 3024 3020 3017 3013 3010 3005 3002 2998 2995 2991 2988 2985 2982 2981 2978 2976 2975 2973 2973 2972 2972 2970 2971 2972 2976 2975 2973 2972 2972 2973 2975 2973 2973 2974 2979 2980 2979 2979 2980